Location: Poughquag
(41.6090°N, 73.6820°W)
Time: 12:47:40
(UTC-04:00)

Tiros 1 - Pass Details

Date: 03 June 2020
Orbit: 630 x 664 km, 48.4° (Epoch: 06 July)

Event Time Altitude Azimuth Distance (km) Brightness Sun altitude
Rises 16:38:38 0° 297° (WNW) 2,957 11.2 39.5°
Reaches altitude 10° 16:41:01 10° 301° (WNW) 2,040 10.6 39.1°
Maximum altitude 16:45:40 58° 21° (NNE) 746 7.8 38.2°
Drops below altitude 10° 16:50:14 10° 101° (E) 2,014 9.3 37.3°
Sets 16:52:35 0° 105° (ESE) 2,916 10.0 36.9°
